N8MFN Weather Reports


time (UTC)temp
C
wind
direction
speed
KPH
gust
KPH
rain 1hr
cm
rain 24hr
cm
rain mn
cm
humidity
%
barometer
mb
20260902212037 40 188 4.8 8.0 0.00 0.00 0.00 59
20260902211016 40 180 6.4 12.9 0.00 0.00 0.00 59
20260902210017 40 197 4.8 12.9 0.00 0.00 0.00 59
20260902205017 39 203 3.2 8.0 0.00 0.00 0.00 60
20260902204016 41 192 4.8 8.0 0.00 0.00 0.00 60
20260902203016 40 185 3.2 8.0 0.00 0.00 0.00 61
20260902202018 39 190 1.6 8.0 0.00 0.00 0.00 61
20260902201017 38 245 3.2 6.4 0.00 0.00 0.00 60
20260902200017 38 284 1.6 4.8 0.00 0.00 0.00 59
20260902195037 40 179 3.2 12.9 0.00 0.00 0.00 60
20260902194017 40 185 3.2 8.0 0.00 0.00 0.00 60
20260902193017 38 182 6.4 11.3 0.00 0.00 0.00 60
20260902192017 36 202 4.8 16.1 0.00 0.00 0.00 60
20260902191037 37 215 3.2 6.4 0.00 0.00 0.00 62
20260902190017 36 223 4.8 9.7 0.00 0.00 0.00 62
20260902185016 36 182 4.8 12.9 0.00 0.00 0.00 61
20260902184017 36 258 8.0 22.5 0.00 0.00 0.00 62
20260902183037 36 223 6.4 14.5 0.00 0.00 0.00 63
20260902182016 35 291 8.0 14.5 0.00 0.00 0.00 63
20260902181037 35 283 6.4 14.5 0.00 0.00 0.00 63
20260902180017 36 216 4.8 6.4 0.00 0.00 0.00 65
20260902175017 36 278 3.2 8.0 0.00 0.00 0.00 67
20260902174017 36 187 6.4 12.9 0.00 0.00 0.00 67
20260902173017 36 184 4.8 11.3 0.00 0.00 0.00 69
20260902172016 35 179 4.8 11.3 0.00 0.00 0.00 71
20260902171038 35 208 4.8 9.7 0.00 0.00 0.00 72
20260902170017 35 295 3.2 8.0 0.00 0.00 0.00 74
20260902165017 34 201 3.2 8.0 0.00 0.00 0.00 76
20260902164017 34 202 3.2 6.4 0.00 0.00 0.00 77
20260902163018 33 203 3.2 6.4 0.00 0.00 0.00 78
20260902162017 33 185 6.4 9.7 0.00 0.00 0.00 78
20260902161016 33 189 4.8 8.0 0.00 0.00 0.00 80
20260902160017 33 181 3.2 6.4 0.00 0.00 0.00 79
20260902155017 32 198 6.4 16.1 0.00 0.00 0.00 80
20260902154016 32 180 3.2 6.4 0.00 0.00 0.00 80
20260902153017 32 206 1.6 4.8 0.00 0.00 0.00 81
20260902152037 32 187 1.6 3.2 0.00 0.00 0.00 81
20260902151017 31 184 3.2 6.4 0.00 0.00 0.00 80
20260902150017 32 212 1.6 4.8 0.00 0.00 0.00 80
20260902145017 31 194 1.6 3.2 0.00 0.00 0.00 81
20260902144040 31 177 1.6 4.8 0.00 0.00 0.00 81
20260902143016 30 182 3.2 4.8 0.00 0.00 0.00 83
20260902142017 30 168 1.6 1.6 0.00 0.00 0.00 85
20260902141017 29 181 4.8 12.9 0.00 0.00 0.00 86
20260902140017 28 176 3.2 4.8 0.00 0.00 0.00 87
20260902135017 28 202 1.6 4.8 0.00 0.00 0.00 87
20260902134018 27 180 1.6 3.2 0.00 0.00 0.00 89
20260902133038 26 198 1.6 3.2 0.00 0.00 0.00 89
20260902132037 26 179 1.6 3.2 0.00 0.00 0.00 89
20260902131017 25 175 1.6 4.8 0.00 0.00 0.00 90
20260902130016 25 182 1.6 4.8 0.00 0.00 0.00 90
20260902125016 25 177 1.6 4.8 0.00 0.00 0.00 89
20260902124017 24 182 1.6 4.8 0.00 0.00 0.00 89
20260902123016 23 180 0.0 1.6 0.00 0.00 0.00 89
20260902122016 23 180 1.6 3.2 0.00 0.00 0.00 88
20260902121037 23 168 0.0 1.6 0.00 0.00 0.00 88
20260902120017 22 144 0.0 1.6 0.00 0.00 0.00 88
20260902115016 22 134 0.0 0.0 0.00 0.00 0.00 88
20260902114017 22 134 0.0 1.6 0.00 0.00 0.00 88
20260902113017 22 0.0 0.0 0.00 0.00 0.00 88
20260902112017 22 0.0 0.0 0.00 0.00 0.00 87
20260902111016 22 179 0.0 0.0 0.00 0.00 0.00 87
20260902110017 22 177 0.0 1.6 0.00 0.00 0.00 87
20260902105017 22 0.0 0.0 0.00 0.00 0.00 87
20260902104036 22 179 0.0 1.6 0.00 0.00 0.00 87
20260902103017 22 179 0.0 1.6 0.00 0.00 0.00 86
20260902102017 22 176 0.0 1.6 0.00 0.00 0.00 86
20260902101016 22 134 0.0 0.0 0.00 0.00 0.00 86
20260902100016 22 134 0.0 1.6 0.00 0.00 0.00 85
20260902095017 22 134 0.0 0.0 0.00 0.00 0.00 85
20260902094017 22 179 1.6 1.6 0.00 0.00 0.00 85
20260902093016 22 179 1.6 1.6 0.00 0.00 0.00 85
20260902092017 22 178 1.6 1.6 0.00 0.00 0.00 84
20260902091016 22 0.0 0.0 0.00 0.00 0.00 84
20260902090017 22 0.0 0.0 0.00 0.00 0.00 84
20260902085016 22 134 0.0 1.6 0.00 0.00 0.00 83
20260902084017 22 134 0.0 1.6 0.00 0.00 0.00 83
20260902083017 22 0.0 0.0 0.00 0.00 0.00 83
20260902082017 22 0.0 0.0 0.00 0.00 0.00 83
20260902081037 22 134 0.0 0.0 0.00 0.00 0.00 82
20260902080017 23 134 0.0 0.0 0.00 0.00 0.00 82
20260902075016 23 179 0.0 1.6 0.00 0.00 0.00 82
20260902074017 23 164 0.0 1.6 0.00 0.00 0.00 81
20260902073017 23 152 0.0 1.6 0.00 0.00 0.00 81
20260902072018 23 175 0.0 1.6 0.00 0.00 0.00 81
20260902071016 23 179 0.0 1.6 0.00 0.00 0.00 80
20260902070017 23 179 0.0 1.6 0.00 0.00 0.00 80
20260902065017 23 134 0.0 1.6 0.00 0.00 0.00 80
20260902064016 24 148 0.0 1.6 0.00 0.00 0.00 79
20260902063017 24 164 1.6 1.6 0.00 0.00 0.00 79
20260902062016 24 163 1.6 3.2 0.00 0.00 0.00 79
20260902061016 24 170 0.0 1.6 0.00 0.00 0.00 79
20260902060017 24 139 0.0 1.6 0.00 0.00 0.00 78
20260902055019 24 179 0.0 1.6 0.00 0.00 0.00 78
20260902054017 24 179 0.0 0.0 0.00 0.00 0.00 78
20260902053016 24 179 0.0 0.0 0.00 0.00 0.00 77
20260902052017 24 177 0.0 1.6 0.00 0.00 0.00 77
20260902051017 25 177 0.0 1.6 0.00 0.00 0.00 76
20260902050016 25 134 0.0 1.6 0.00 0.00 0.00 76
20260902045017 25 0.0 0.0 0.00 0.00 0.00 76
20260902044017 25 134 0.0 0.0 0.00 0.00 0.00 75
20260902043016 25 134 0.0 0.0 0.00 0.00 0.00 75
20260902042016 25 134 0.0 0.0 0.00 0.00 0.00 75
20260902041037 25 134 0.0 0.0 0.00 0.00 0.00 74
20260902040017 25 134 0.0 0.0 0.00 0.00 0.00 74
20260902035016 25 134 0.0 1.6 0.00 0.00 0.00 74
20260902034028 26 0.0 0.0 0.00 0.00 0.00 73
20260902033017 26 134 0.0 0.0 0.00 0.00 0.00 73
20260902032036 26 134 0.0 1.6 0.00 0.00 0.00 73
20260902031037 26 134 0.0 0.0 0.00 0.00 0.00 72
20260902030037 26 134 0.0 1.6 0.00 0.00 0.00 72
20260902025036 26 134 0.0 0.0 0.00 0.00 0.00 72
20260902024017 26 134 0.0 0.0 0.00 0.00 0.00 71
20260902023017 26 134 0.0 0.0 0.00 0.00 0.00 71
20260902022017 26 134 0.0 0.0 0.00 0.00 0.00 70
20260902021016 26 0.0 0.0 0.00 0.00 0.00 70
20260902020017 27 0.0 0.0 0.00 0.00 0.00 69
20260902015016 27 0.0 0.0 0.00 0.00 0.00 69
20260902014017 27 0.0 0.0 0.00 0.00 0.00 68
20260902013037 27 134 0.0 0.0 0.00 0.00 0.00 68
20260902012017 27 134 0.0 0.0 0.00 0.00 0.00 68
20260902011016 28 134 0.0 0.0 0.00 0.00 0.00 67
20260902010017 28 171 1.6 3.2 0.00 0.00 0.00 67
20260902005037 28 165 1.6 3.2 0.00 0.00 0.00 66
20260902004018 28 161 0.0 1.6 0.00 0.00 0.00 66
20260902003016 29 155 0.0 1.6 0.00 0.00 0.00 65
20260902002017 30 134 0.0 0.0 0.00 0.00 0.00 64
20260902001017 30 167 0.0 1.6 0.00 0.00 0.00 64
20260902000017 31 158 0.0 1.6 0.00 0.00 0.00 63
20260901235017 32 196 1.6 3.2 0.00 0.00 0.00 62
20260901234017 33 183 4.8 8.0 0.00 0.00 0.00 62
20260901233017 35 182 3.2 4.8 0.00 0.00 0.00 62
20260901232017 36 185 3.2 8.0 0.00 0.00 0.00 61
20260901231017 33 183 4.8 9.7 0.00 0.00 0.00 60
20260901230017 33 183 4.8 11.3 0.00 0.00 0.00 60
20260901225016 34 186 1.6 4.8 0.00 0.00 0.00 59
20260901224017 34 192 1.6 3.2 0.00 0.00 0.00 58
20260901223037 35 183 3.2 6.4 0.00 0.00 0.00 58
20260901222037 35 183 3.2 9.7 0.00 0.00 0.00 57
20260901221018 35 180 3.2 8.0 0.00 0.00 0.00 57
20260901220017 39 188 3.2 6.4 0.00 0.00 0.00 57
20260901215016 40 190 3.2 6.4 0.00 0.00 0.00 56
20260901214017 41 183 3.2 8.0 0.00 0.00 0.00 56
20260901213017 40 193 4.8 8.0 0.00 0.00 0.00 55